This is the latest recevied weather packets stored in our database for station/object OH2TH. If no packets are shown the sender has not sent any weather packets the latest 10 day(s).
| Time | Temp. | Humidity | Pressure | Rain* | Wind** | Luminosity | Snow |
|---|---|---|---|---|---|---|---|
| 1777671901 | 7.78° C | 76% | 101 hPa | 3.05 mm | - | - | - |
| 1777671001 | 7.78° C | 75% | 101 hPa | 3.05 mm | - | - | - |
| 1777670105 | 7.78° C | 72% | 101 hPa | 3.05 mm | - | - | - |
| 1777669204 | 8.33° C | 71% | 101 hPa | 3.05 mm | - | - | - |
| 1777668303 | 8.33° C | 70% | 101 hPa | 3.05 mm | - | - | - |
| 1777667403 | 9.44° C | 67% | 101 hPa | 3.05 mm | - | - | - |
| 1777666502 | 9.44° C | 65% | 101 hPa | 3.05 mm | - | - | - |
| 1777665602 | 9.44° C | 64% | 101 hPa | 3.05 mm | - | - | - |
| 1777664701 | 10.56° C | 65% | 101 hPa | 3.05 mm | - | - | - |
| 1777663800 | 10.56° C | 63% | 101 hPa | 3.05 mm | - | - | - |
| 1777662905 | 11.67° C | 62% | 101 hPa | 3.05 mm | - | - | - |
| 1777662005 | 11.67° C | 58% | 101 hPa | 3.05 mm | - | - | - |
| 1777661105 | 12.78° C | 56% | 101 hPa | 3.05 mm | - | - | - |
| 1777660204 | 13.33° C | 50% | 101 hPa | 3.05 mm | - | - | - |
| 1777659304 | 15.56° C | 40% | 101 hPa | 3.05 mm | - | - | - |
| 1777658404 | 15.56° C | 38% | 101 hPa | 3.05 mm | - | - | - |
| 1777657503 | 15.56° C | 37% | 101 hPa | 3.05 mm | - | - | - |
| 1777656602 | 16.67° C | 35% | 101 hPa | 3.05 mm | - | - | - |
| 1777655702 | 17.78° C | 38% | 101 hPa | 3.05 mm | - | - | - |
| 1777654802 | 18.33° C | 39% | 101 hPa | 3.05 mm | - | - | - |
| 1777653902 | 18.33° C | 39% | 101 hPa | 8.89 mm | - | - | - |
| 1777653002 | 18.89° C | 38% | 101 hPa | 8.89 mm | - | - | - |
| 1777652102 | 18.89° C | 40% | 101 hPa | 8.89 mm | - | - | - |
| 1777651202 | 18.89° C | 39% | 101 hPa | 8.89 mm | - | - | - |
| 1777650302 | 18.89° C | 38% | 101 hPa | 11.94 mm | - | - | - |
* Rain latest 24 hours (hover to see other rain measurements)
** Current wind speed in m/s (hover to see current wind gust speed)